User: anonymous   Login
Location: Friaudour
(46.0460°N, 1.2873°E)
Time: 13:55:21
(UTC+00:00)
Language:

Cosmos 405 Rocket - Orbit

View from above orbital plane
View from above orbital plane
View from above satellite
View from above satellite

Ground track
Ground track

The orbit data is extracted from the following two-line orbital elements,

1  5118U 71028B   20262.55375100 -.00000070 +00000-0 -50923-5 0  9994
2  5118 081.2546 229.3854 0045610 250.8985 108.7302 15.14658745683913
Epoch (UTC): 18 September 2020 13:17:24
Eccentricity: 0.0045610
inclination: 81.2546°
perigee height: 490 km
apogee height: 553 km
right ascension of ascending node: 229.3854°
argument of perigee: 250.8985°
revolutions per day: 15.14658745
mean anomaly at epoch: 108.7302°
orbit number at epoch: 68391

The dashed part of the orbit path shows where the satellite is in the earth's shadow,  

DLR